OPS 4682 DEB, 51495

Orbit data source: Space-Track

OPS 4682 DEB, 51495 is space debris in LEO originally from a launch on Sat, 03 Apr 1965 UTC launched from the Air Force Western Test Range (AFWTR). Debris objects in space refer to the collection of defunct objects orbiting the Earth. Examples of debris include non-operational satellites, rocket bodies, and fragments generated from explosions, collisions, or faulty payload assembly.

Loading next visibility...
Identifier
51495, 1965-027GF
Orbit
LEO
Country
Flag of USUS
Related business
Manufacturer
Unknown
Mission
Spacecraft
Bus & Motor
Unknown
Mass
Unknown
Launch date (UTC)
1965-04-03 (61 years ago)
Launch vehicle
Unknown
Launch site
Air Force Western Test Range (AFWTR)
Object type
Payload
Rocket body
Debris
Shape & HBR
Unknown shape, 0.1 m
Radar Cross Section
Medium (>0.1 m² and <1 m²)

Expand to show TLE details & history
Last TLE update: 11 hours ago

TLE from 11 hours ago
0 OPS 4682 DEB
1 51495U 65027GF  26264.26049568  .00000007  00000-0  31582-6 0  9996
2 51495  90.2482   9.0628 0036416 198.0710 161.9118 12.96771174413439
Epoch: 2026-09-21T06:15Z
TLE epoch observation values (Epoch: 2026-09-21T06:15:06.826Z)
Latitude
-0.00007°
Longitude
-84.85852°
Altitude
1,304.149 km
Speed
7.192 km/s
True Right ascension
00h 36m 15s
True Declination
0° 00' 00"
Sunlit
Object was in full shadow at epoch
Visualization orbit readout
Latitude
Unknown
Longitude
Unknown
Altitude
Unknown
Speed
Unknown
Apparent Right ascension
Unknown
Apparent Declination
Unknown
Sunlit
N/A
Visualization observer readout
Local Sidereal Time
09:57:18
Azimuth
Unknown
Elevation
Unknown
Doppler factor
Unknown
Orbital elements
Apogee altitude
1,299.754 km
Perigee altitude
1,244.037 km
Semi-major axis
7,650.032 km
Eccentricity
0.00364
Inclination
90.2482°
RAAN
9.0628°
Arg. of periapsis
198.071°
True anomaly
162.0408°
Mean anomaly
161.9118°
Eccentric anomaly
161.97636°
Mean motion
3.24376 °/min
Orbital period
110.98 mins
BSTAR
3.1582e-7
Loading maneuver chart data...
Computing Atmospheric mass density...
Loading historical data...
Loading historical data...
Loading historical data...
Loading historical data...
Loading historical data...
Loading historical data...
Loading historical data...

Documentation

Showing up to 5 results
|